Content
SEND FEEDBACK

Daily
Averages
Monthly
Summary
United Kingdom

SHOREHAM-BY-SEA, ENGLAND


Home > Europe > United Kingdom > England
Elevation: 7 feet     Latitude: 50 50N     Longitude: 000 17W

WEATHER
 
SELECT A DAY
Number of Records: 110,040;   Date Range: 7/1/96 - 7/20/14
 
SHARE

PRINT THIS DATA

[ ← Previous Day ]
WEATHER ALMANAC - OCTOBER 25, 2013
[ Next Day → ]
[ °C ]   °F
Weather ElementAverageHighLow
Temperature62 °F64.4 °F (11:20 am)60 °F (7:00 am)
Dewpoint59.1 °F60.8 °F (11:20 am)58 °F (7:00 am)
Humidity89.3 %94 % (8:20 am)81 % (7:00 pm)
Barometer29.70 in29.74 in (10:00 pm)29.62 in (7:00 am)
Wind Speed16.2 mph18.4 mph (1:00 pm)
Weather ElementAverage
Visibility6.1 mi
Wind DirectionSSW (205.4 °)

Weather ElementTotal
Precipitation---
Heating Degree Days2.8 (Base 65)
Growing Degree Days12.2 (Base 50)
Averaged from 26 records on October 25, 2013
WEATHER CONDITIONS BREAKOUT
WIND DIRECTION BREAKOUT
WEATHER BY HOUR - OCTOBER 25, 2013
[ °C ]   °F
Local TimeTemperatureDewpointHumidityBarometerVisibilityWind DirectionWind SpeedGust SpeedPrecipitationEventsConditions
7:00 AM60.0 °F58.0 °F92 %29.62 inSSE (160°)17.3 mph
8:20 AM60.8 °F59.0 °F94 %29.62 in5.6 miSSW (200°)16.1 mphMostly Cloudy
8:50 AM60.8 °F59.0 °F94 %29.65 in5.6 miSSW (200°)16.1 mphMostly Cloudy
9:20 AM60.8 °F59.0 °F94 %29.68 in5.6 miSSW (200°)17.3 mphMostly Cloudy
9:50 AM60.8 °F59.0 °F94 %29.68 in6.2 miSSW (210°)16.1 mphMostly Cloudy
10:00 AM62.0 °F59.0 °F88 %29.68 inSSW (210°)17.3 mph
10:20 AM62.6 °F59.0 °F88 %29.68 in6.2 miSW (220°)16.1 mphPartly Cloudy
10:50 AM62.6 °F59.0 °F88 %29.68 in6.2 miSW (220°)16.1 mphScattered Clouds
11:20 AM64.4 °F60.8 °F88 %29.71 in6.2 miSSW (210°)16.1 mphScattered Clouds
11:50 AM62.6 °F60.8 °F94 %29.71 in6.2 miSSW (210°)15.0 mphPartly Cloudy
12:20 PM62.6 °F59.0 °F88 %29.71 in6.2 miSSW (210°)17.3 mphPartly Cloudy
12:50 PM64.4 °F60.8 °F88 %29.71 in6.2 miSSW (210°)17.3 mphPartly Cloudy
1:00 PM63.0 °F59.0 °F83 %29.72 inSSW (210°)18.4 mph
1:20 PM62.6 °F59.0 °F88 %29.71 in6.2 miSSW (210°)18.4 mphPartly Cloudy
1:50 PM62.6 °F59.0 °F88 %29.71 in6.2 miSSW (210°)17.3 mphPartly Cloudy
2:20 PM62.6 °F59.0 °F88 %29.71 in6.2 miSSW (210°)16.1 mphPartly Cloudy
2:50 PM62.6 °F59.0 °F88 %29.71 in6.2 miSSW (210°)16.1 mphPartly Cloudy
3:20 PM62.6 °F59.0 °F88 %29.71 in6.2 miSSW (210°)15.0 mphPartly Cloudy
3:50 PM62.6 °F59.0 °F88 %29.71 in6.2 miSSW (210°)16.1 mphPartly Cloudy
4:00 PM62.0 °F58.0 °F84 %29.72 inSSW (200°)16.1 mph
4:20 PM62.6 °F59.0 °F88 %29.71 in6.2 miSSW (210°)13.8 mphPartly Cloudy
4:50 PM60.8 °F59.0 °F94 %29.71 in6.2 miSSW (200°)13.8 mphPartly Cloudy
5:20 PM60.8 °F59.0 °F94 %29.71 in5.6 miSouth (190°)13.8 mph
5:50 PM60.8 °F59.0 °F94 %29.71 inSSW (200°)16.1 mphClear
7:00 PM62.0 °F58.0 °F81 %29.73 inSSW (200°)16.1 mph
10:00 PM61.0 °F58.0 °F86 %29.74 inSSW (210°)16.1 mph
Hourly data recorded from EGKA, located miles away from Shoreham-by-Sea, England







STORIES FROM OUR PARTNERS